WZZ273 EPKT-EPMO

Flight info

Callsign WZZ273
Flight time 0h 30m
Altitude 25000
Route NAVUR N744 OVBOR/N0357F240 N133 NUBLI
Aircraft A20N/M-SDE2E3FGHIRWXY/LB1

Departure

Time 2026-03-27 22:11
Airport Katowice Wojciech Korfanty International Airport (EPKT)

Arrival

Time 2026-03-27 22:41
Airport Warsaw Modlin Airport (EPMO)
Time Latitude Longitude Altitude Speed Heading
2026-03-27 21:58 50.47147 19.09014 998 ft 0 kts 180°
2026-03-27 22:05 50.47149 19.09014 998 ft 2 kts 180°
2026-03-27 22:06 50.47164 19.09014 1002 ft 2 kts 180°
2026-03-27 22:06 50.47179 19.09014 998 ft 2 kts 180°
2026-03-27 22:06 50.47194 19.09014 1001 ft 2 kts 180°
2026-03-27 22:06 50.47209 19.09014 1000 ft 2 kts 168°
2026-03-27 22:07 50.47223 19.09005 998 ft 2 kts 135°
2026-03-27 22:07 50.47231 19.08986 998 ft 2 kts 91°
2026-03-27 22:07 50.47231 19.08983 998 ft 0 kts 86°
2026-03-27 22:08 50.47232 19.09015 1003 ft 7 kts 87°
2026-03-27 22:08 50.47234 19.09143 1003 ft 16 kts 90°
2026-03-27 22:08 50.47234 19.09323 1003 ft 14 kts 92°
2026-03-27 22:09 50.47230 19.09525 1000 ft 22 kts 91°
2026-03-27 22:09 50.47228 19.09806 1003 ft 29 kts 90°
2026-03-27 22:09 50.47265 19.10086 998 ft 25 kts 54°
2026-03-27 22:09 50.47376 19.10298 998 ft 25 kts 49°
2026-03-27 22:10 50.47491 19.10450 998 ft 17 kts 347°
2026-03-27 22:10 50.47590 19.10365 997 ft 15 kts 292°
2026-03-27 22:10 50.47594 19.10131 1000 ft 45 kts 272°
2026-03-27 22:10 50.47598 19.09294 1001 ft 107 kts 270°
2026-03-27 22:11 50.47602 19.07855 1003 ft 154 kts 272°
2026-03-27 22:11 50.47612 19.06104 1410 ft 165 kts 274°
2026-03-27 22:11 50.47661 19.04254 2039 ft 172 kts 279°
2026-03-27 22:11 50.47735 19.02355 2628 ft 179 kts 279°
2026-03-27 22:12 50.47675 19.00351 3180 ft 189 kts 273°
2026-03-27 22:12 50.47648 18.98189 3456 ft 205 kts 284°
2026-03-27 22:12 50.48248 18.96169 3694 ft 209 kts 320°
2026-03-27 22:12 50.49540 18.95036 3894 ft 222 kts 354°
2026-03-27 22:13 50.51094 18.95277 4300 ft 237 kts 25°
2026-03-27 22:13 50.52389 18.96906 5095 ft 243 kts 53°
2026-03-27 22:13 50.53308 18.99183 6075 ft 249 kts 60°
2026-03-27 22:13 50.54203 19.01522 6975 ft 254 kts 58°
2026-03-27 22:14 50.55214 19.03851 7903 ft 260 kts 55°
2026-03-27 22:14 50.56325 19.06132 8833 ft 265 kts 53°
2026-03-27 22:14 50.57498 19.08380 9739 ft 271 kts 52°
2026-03-27 22:14 50.58737 19.10690 10512 ft 282 kts 52°
2026-03-27 22:15 50.60063 19.13148 10872 ft 305 kts 52°
2026-03-27 22:15 50.61487 19.15793 11252 ft 324 kts 51°
2026-03-27 22:15 50.62944 19.18500 12012 ft 330 kts 51°
2026-03-27 22:15 50.64460 19.21293 12851 ft 335 kts 49°
2026-03-27 22:16 50.66327 19.23471 13633 ft 344 kts 27°
2026-03-27 22:16 50.68654 19.24603 14345 ft 353 kts 14°
2026-03-27 22:16 50.71093 19.25335 15044 ft 358 kts 12°
2026-03-27 22:16 50.73555 19.25995 15756 ft 363 kts 11°
2026-03-27 22:17 50.76058 19.26681 16455 ft 368 kts 12°
2026-03-27 22:17 50.78568 19.27401 17143 ft 373 kts 12°
2026-03-27 22:17 50.81156 19.28169 17845 ft 377 kts 12°
2026-03-27 22:17 50.83763 19.28957 18513 ft 382 kts 12°
2026-03-27 22:18 50.86371 19.29753 19100 ft 386 kts 12°
2026-03-27 22:18 50.89043 19.30571 19688 ft 391 kts 12°
2026-03-27 22:18 50.91709 19.31387 20263 ft 395 kts 12°
2026-03-27 22:18 50.94442 19.32225 20833 ft 400 kts 12°
2026-03-27 22:19 50.97034 19.33020 21384 ft 404 kts 12°
2026-03-27 22:19 50.99824 19.33877 21944 ft 409 kts 12°
2026-03-27 22:19 51.02637 19.34768 22502 ft 413 kts 15°
2026-03-27 22:19 51.05351 19.36234 23034 ft 416 kts 22°
2026-03-27 22:20 51.08087 19.37874 23591 ft 421 kts 22°
2026-03-27 22:20 51.10813 19.39520 24047 ft 425 kts 22°
2026-03-27 22:20 51.13599 19.41200 24476 ft 430 kts 22°
2026-03-27 22:20 51.16428 19.42904 24893 ft 435 kts 22°
2026-03-27 22:21 51.19242 19.44598 25070 ft 438 kts 22°
2026-03-27 22:21 51.22110 19.46325 25099 ft 437 kts 22°
2026-03-27 22:21 51.24971 19.48048 25101 ft 437 kts 22°
2026-03-27 22:21 51.27787 19.49747 25104 ft 437 kts 22°
2026-03-27 22:22 51.30654 19.51480 25105 ft 437 kts 22°
2026-03-27 22:22 51.33457 19.53176 24943 ft 434 kts 22°
2026-03-27 22:22 51.36288 19.54891 24564 ft 430 kts 22°
2026-03-27 22:22 51.39046 19.56564 24082 ft 424 kts 22°
2026-03-27 22:23 51.41793 19.58233 23309 ft 417 kts 22°
2026-03-27 22:23 51.44494 19.59876 22455 ft 411 kts 22°
2026-03-27 22:23 51.47133 19.61483 21793 ft 407 kts 22°
2026-03-27 22:23 51.49780 19.63097 21251 ft 402 kts 22°
2026-03-27 22:24 51.52364 19.64675 20720 ft 398 kts 22°
2026-03-27 22:24 51.54953 19.66258 20177 ft 395 kts 22°
2026-03-27 22:24 51.57505 19.67821 19646 ft 391 kts 22°
2026-03-27 22:24 51.59197 19.68858 19296 ft 388 kts 21°
2026-03-27 22:25 51.62481 19.70872 18629 ft 384 kts 21°
2026-03-27 22:25 51.64981 19.72407 18060 ft 381 kts 21°
2026-03-27 22:25 51.67431 19.73913 17503 ft 377 kts 22°
2026-03-27 22:25 51.69875 19.75417 16957 ft 373 kts 22°
2026-03-27 22:26 51.72306 19.76915 16416 ft 370 kts 22°
2026-03-27 22:26 51.74684 19.78382 15885 ft 367 kts 22°
2026-03-27 22:26 51.77070 19.79856 15366 ft 364 kts 22°
2026-03-27 22:26 51.79397 19.81295 14875 ft 360 kts 22°
2026-03-27 22:27 51.81736 19.82743 14386 ft 357 kts 22°
2026-03-27 22:27 51.84058 19.84182 13895 ft 354 kts 22°
2026-03-27 22:27 51.86331 19.85594 13347 ft 351 kts 22°
2026-03-27 22:27 51.88609 19.87010 12828 ft 348 kts 22°
2026-03-27 22:28 51.90805 19.88376 12323 ft 345 kts 22°
2026-03-27 22:28 51.93045 19.89771 11810 ft 342 kts 22°
2026-03-27 22:28 51.95275 19.91160 11308 ft 339 kts 22°
2026-03-27 22:28 51.97454 19.92520 10819 ft 337 kts 22°
2026-03-27 22:29 51.99633 19.93880 10463 ft 330 kts 22°
2026-03-27 22:29 52.01033 19.94754 10363 ft 321 kts 22°
2026-03-27 22:29 52.03710 19.96427 10209 ft 303 kts 22°
2026-03-27 22:29 52.05001 19.97234 10134 ft 295 kts 22°
2026-03-27 22:30 52.07499 19.98800 9781 ft 286 kts 22°
2026-03-27 22:30 52.08729 19.99573 9520 ft 284 kts 22°
2026-03-27 22:30 52.11179 20.01113 8991 ft 282 kts 23°
2026-03-27 22:30 52.12393 20.01877 8745 ft 280 kts 23°
2026-03-27 22:31 52.14216 20.03025 8360 ft 278 kts 22°
2026-03-27 22:31 52.16018 20.04160 7989 ft 275 kts 22°
2026-03-27 22:31 52.17780 20.05270 7613 ft 274 kts 22°
2026-03-27 22:31 52.19558 20.06392 7256 ft 271 kts 22°
2026-03-27 22:32 52.21301 20.07491 6912 ft 269 kts 22°
2026-03-27 22:32 52.23055 20.08599 6552 ft 268 kts 23°
2026-03-27 22:32 52.24766 20.09681 6196 ft 265 kts 22°
2026-03-27 22:32 52.26491 20.10773 5836 ft 263 kts 22°
2026-03-27 22:33 52.28194 20.11852 5499 ft 260 kts 22°
2026-03-27 22:33 52.29860 20.12908 5179 ft 257 kts 22°
2026-03-27 22:33 52.31495 20.13945 5071 ft 245 kts 22°
2026-03-27 22:33 52.33040 20.14925 4972 ft 233 kts 22°
2026-03-27 22:34 52.34512 20.15858 4813 ft 224 kts 22°
2026-03-27 22:34 52.35968 20.16783 4456 ft 223 kts 22°
2026-03-27 22:34 52.37391 20.17689 4125 ft 220 kts 22°
2026-03-27 22:34 52.38816 20.18595 3797 ft 218 kts 22°
2026-03-27 22:35 52.40123 20.19800 3441 ft 215 kts 44°
2026-03-27 22:35 52.40932 20.21808 3120 ft 213 kts 70°
2026-03-27 22:35 52.41193 20.24188 3005 ft 215 kts 79°
2026-03-27 22:35 52.41457 20.26571 2992 ft 214 kts 77°
2026-03-27 22:36 52.41722 20.28966 2997 ft 214 kts 78°
2026-03-27 22:36 52.41963 20.31395 2993 ft 215 kts 79°
2026-03-27 22:36 52.42191 20.33822 2992 ft 215 kts 79°
2026-03-27 22:36 52.42415 20.36208 2995 ft 213 kts 79°
2026-03-27 22:37 52.42632 20.38538 2992 ft 198 kts 79°
2026-03-27 22:37 52.42826 20.40630 2986 ft 171 kts 78°
2026-03-27 22:37 52.42990 20.42380 3000 ft 146 kts 78°
2026-03-27 22:37 52.43144 20.43999 2928 ft 143 kts 78°
2026-03-27 22:38 52.43286 20.45535 2740 ft 131 kts 77°
2026-03-27 22:38 52.43423 20.46987 2561 ft 129 kts 77°
2026-03-27 22:38 52.43557 20.48423 2373 ft 129 kts 77°
2026-03-27 22:38 52.43693 20.49873 2200 ft 128 kts 77°
2026-03-27 22:39 52.43829 20.51329 2026 ft 128 kts 77°
2026-03-27 22:39 52.43961 20.52746 1850 ft 126 kts 76°
2026-03-27 22:39 52.44098 20.54192 1663 ft 130 kts 76°
2026-03-27 22:39 52.44235 20.55671 1472 ft 131 kts 76°
2026-03-27 22:40 52.44373 20.57150 1245 ft 133 kts 77°
2026-03-27 22:40 52.44516 20.58674 1008 ft 136 kts 78°
2026-03-27 22:40 52.44659 20.60204 794 ft 137 kts 77°
2026-03-27 22:40 52.44803 20.61755 599 ft 138 kts 77°
2026-03-27 22:41 52.44941 20.63297 403 ft 137 kts 77°
2026-03-27 22:41 52.45085 20.64744 335 ft 100 kts 80°
2026-03-27 22:41 52.45151 20.65422 338 ft 39 kts 81°
2026-03-27 22:41 52.45185 20.65856 339 ft 30 kts 82°
2026-03-27 22:42 52.45131 20.66005 335 ft 18 kts 155°
2026-03-27 22:42 52.45064 20.66046 334 ft 0 kts 160°
2026-03-27 22:43 52.45060 20.66048 335 ft 3 kts 160°
2026-03-27 22:43 52.45007 20.66080 338 ft 14 kts 160°
2026-03-27 22:43 52.44888 20.66111 336 ft 19 kts 217°
2026-03-27 22:43 52.44848 20.65892 335 ft 22 kts 262°
2026-03-27 22:44 52.44827 20.65638 338 ft 23 kts 262°
2026-03-27 22:44 52.44801 20.65368 335 ft 24 kts 259°
2026-03-27 22:44 52.44790 20.65253 335 ft 3 kts 256°
2026-03-27 22:44 52.44755 20.65194 337 ft 11 kts 211°
2026-03-27 22:45 52.44747 20.65187 333 ft 0 kts 208°